Flag for Norway Weather past 2 weeks in Halden, Norway

Now
49 °F

Cool.


Feels Like: 43 °F
Forecast: 35 / 55 °F
Wind: 15 mph from Southwest

Location: Stromtangen Fyr

Current Time: May 23, 2015 at 6:30:51 AM

Latest Report: May 23, 2015 at 5:00 AM


Visibility: N/A

Pressure: 29.83 "Hg

Humidity: 74%

Dew point: 41 °F

Location of HaldenLocation

Historic Weather in Halden — Graph

°F

Halden temperature yesterday

Maximum temperature yesterday: 52 °F (at 1:00 AM)
Minimum temperature yesterday: 50 °F (at 11:00 PM)
Average temperature yesterday: 51 °F

Past Weeks' High & Low Weather Summary

 TemperatureHumidityPressure
High57 °F (May 14, 4:00 PM)96% (May 12, 1:00 AM)30.16 "Hg (May 12, 1:00 AM)
Low40 °F (May 10, 8:00 AM)31% (May 14, 4:00 PM)29.41 "Hg (May 19, 7:00 AM)
Average49 °F73%29.83 "Hg
* Reported May 8 4:00 AM — May 23 4:00 AM, Halden, Weather by CustomWeather, © 2015

Note: Actual official high and low records may vary slightly from our data, if they occured in-between our weather recording intervals... More about our weather records

Advertising

Halden weather history for previous 24 hours

 ConditionsComfort  
Time TempWeatherWind HumidityBarometerVisibility
4:00 AM
Sat, May 23
48 °FCool.15 mph73%29.83 "HgN/A
3:00 AM48 °FCool.13 mph69%29.84 "HgN/A
2:00 AM48 °FCool.13 mph67%29.84 "HgN/A
1:00 AM48 °FCool.10 mph70%29.83 "HgN/A
12:00 AM49 °FCool.14 mph72%29.81 "HgN/A
11:00 PM
Fri, May 22
50 °FCool.17 mph81%29.79 "HgN/A
10:00 PM50 °FCool.15 mph84%29.77 "HgN/A
9:00 PM50 °FCool.10 mph88%29.77 "HgN/A
8:00 PM50 °FCool.10 mph94%29.78 "HgN/A
7:00 PM51 °FCool.18 mph94%29.78 "HgN/A
6:00 PM51 °FCool.18 mph94%29.81 "HgN/A
5:00 PM51 °FCool.17 mph92%29.83 "HgN/A
4:00 PM51 °FCool.17 mph92%29.86 "HgN/A
3:00 PM51 °FCool.16 mph93%29.89 "HgN/A
2:00 PM51 °FCool.17 mph93%29.91 "HgN/A
1:00 PM51 °FCool.16 mph93%29.94 "HgN/A
12:00 PM51 °FCool.15 mph91%29.96 "HgN/A
11:00 AM51 °FCool.15 mph90%29.98 "HgN/A
10:00 AM50 °FCool.14 mph91%30.00 "HgN/A
9:00 AM50 °FCool.14 mph88%30.01 "HgN/A
8:00 AM50 °FCool.14 mph87%30.01 "HgN/A
7:00 AM50 °FCool.15 mph84%30.00 "HgN/A
6:00 AM50 °FCool.15 mph84%30.00 "HgN/A
Weather by CustomWeather, © 2015

See weather overviewHow to use our weather pages